Location: Atlanta
(33.7490°N, 84.3880°W)
Time: 14:34:44
(UTC-04:00)

Daily predictions for brighter satellites

Satellite Brightness Start Highest point End
(mag) Time Altitude Azimuth Time Altitude Azimuth Time Altitude Azimuth
Cosmos 1933 Rocket 3.6 21:01:13 10° S 21:05:33 87° W 21:09:55 10° N
Cosmos 1464 Rocket 4.4 20:59:20 10° N 21:05:40 71° W 21:11:59 10° S
Cosmos 2344 4.3 21:01:38 10° SSE 21:08:01 28° ESE 21:14:28 10° NE
Meteor 1-26 Rocket 4.5 21:03:55 10° N 21:09:28 53° E 21:15:05 10° SSE
USA 186 1.8 21:08:14 10° SSE 21:10:46 42° ENE 21:13:31 10° N
Cosmos 2242 Rocket 3.9 21:06:50 10° NNW 21:11:16 71° W 21:15:38 10° S
Cosmos 1943 Rocket 2.9 21:07:16 10° SSE 21:12:08 31° ESE 21:16:59 10° NE
Cosmos 1862 Rocket 3.6 21:09:23 10° N 21:13:53 80° E 21:18:20 10° S
Delta 7925 Rocket 4.5 21:10:39 10° SW 21:14:23 24° SSE 21:18:25 10° ESE
Cosmos 1892 2.6 21:13:59 10° S 21:17:49 76° E 21:21:39 10° N
OE (NEXTSAT) 4.5 21:17:50 10° WNW 21:21:21 72° SW 21:24:38 12° SE
Resurs 01 Rocket 1.9 21:21:29 10° S 21:25:53 73° W 21:30:19 10° NNW
OAO 3 Copernicus 4.3 21:21:24 10° WSW 21:26:26 78° SSE 21:31:28 10° E
CZ-2D R/B 4.0 21:24:57 10° S 21:28:45 56° W 21:32:36 10° NNW
Star 37E S/N 40062 4.0 21:27:14 10° WSW 21:29:01 28° S 21:31:12 14° ESE
Okean 1-7 4.2 21:26:14 10° NNE 21:29:58 27° ENE 21:32:55 14° SE
Cosmos 2346 Rocket 4.4 21:26:24 10° S 21:32:26 83° E 21:38:31 10° N
Cosmos 2263 4.2 21:28:06 10° S 21:33:48 67° ESE 21:39:30 10° NNE
YAOGAN 6 3.3 21:37:20 16° SE 21:39:55 37° ENE 21:43:20 10° N
Cosmos 2369 Rocket 2.5 21:35:37 10° SSW 21:41:14 73° WNW 21:46:56 10° NNE
ISS -0.6 21:40:11 10° WNW 21:42:02 14° NNW 21:43:53 10° N
H-2A R/B 4.1 21:40:20 10° E 21:42:14 12° ENE 21:44:07 10° NE
CZ-4B DEB 3.9 21:41:28 20° ESE 21:42:27 24° ENE 21:44:53 10° NNE
Meteor 1-29 3.5 21:39:45 10° NNE 21:43:03 38° E 21:45:54 13° SSE
Tiangong 2 1.1 21:42:07 10° WNW 21:45:20 78° SSW 21:47:06 24° SE
ERS-1 Rocket 4.0 21:43:43 17° ESE 21:46:38 29° ENE 21:50:56 10° N
Helios 1B rocket 2.3 21:46:20 10° NNE 21:50:26 71° ESE 21:54:30 10° S
Cosmos 1703 Rocket 3.5 21:46:59 10° N 21:51:23 76° E 21:55:11 13° SSE
DNEPR-1 R/B 4.1 21:46:33 10° SSW 21:52:06 76° WNW 21:56:45 10° NNE
GPS 2-04 Rocket1 2.5 21:49:28 10° WNW 21:53:17 76° N 21:55:27 23° E
Shenzhou-11 Module 2.7 21:50:41 10° WNW 21:53:36 42° SW 21:54:52 26° SSE
Cosmos 1606 3.4 21:51:51 10° NNE 21:55:21 35° E 21:56:41 26° ESE
H-2A ROCKET BODY 2.2 21:53:25 10° WSW 21:55:56 35° S 21:58:45 21° SE
Cosmos 2084 3.1 21:52:51 10° NNW 21:56:44 82° ENE 21:58:57 25° SE
Cosmos 1733 Rocket 4.3 21:56:23 21° E 21:56:59 22° E 22:00:18 10° NE
Aureole 3 2.4 21:54:27 12° S 21:57:18 82° E 22:00:17 10° N
Delta 168 4.2 21:54:43 10° SW 21:57:21 20° S 21:58:10 19° SSE
Lacrosse 4 Rocket 2.9 21:54:22 10° N 21:58:04 25° ENE 21:59:44 20° E
ATLAS 5 CENTAUR R/B 3.2 21:55:14 10° NNW 22:00:56 40° NE 22:04:39 22° ESE
Milstar 3 3.8 21:47:36 10° WSW 22:01:23 56° S 22:07:42 17° E
Cosmos 1048 Rocket 4.4 22:00:01 10° N 22:05:07 46° ENE 22:07:36 27° SE
Cosmos 1869 Rocket 3.9 22:01:31 10° SSW 22:05:48 66° W 22:10:08 10° N
Cosmos 1656 Rocket 4.0 22:02:20 14° SSE 22:06:36 39° ESE 22:11:41 10° NE
Cosmos 1408 2.5 22:04:02 15° S 22:07:02 83° E 22:10:47 10° N
SPOT 5 4.2 22:06:19 22° ESE 22:08:11 28° ENE 22:12:37 10° NNE
ARGOS 3.9 22:10:08 26° ESE 22:12:13 35° ENE 22:17:03 10° N
Lacrosse 5 rocket 4.3 22:11:19 10° WNW 22:13:17 14° NW 22:15:16 10° N
CENTAUR R/B 3.3 22:11:00 10° SW 22:16:45 53° NW 22:23:16 10° NNE
Cosmos 372 Rocket 4.4 22:17:16 10° SSW 22:22:20 63° WNW 22:27:24 10° N
Cosmos 1939 Rocket 4.5 22:22:36 11° SSW 22:26:12 33° W 22:29:56 10° NNW
Helios 1A 3.9 22:25:18 18° SSW 22:28:03 44° W 22:32:06 10° NNW
Meteor 1-27 Rocket 3.8 22:24:03 10° N 22:29:40 56° E 22:31:31 39° SE
Cosmos 1825 3.1 22:28:00 14° SSW 22:31:01 47° W 22:34:41 10° N
Meteor 1-10 Rocket 4.4 22:26:14 10° N 22:32:11 78° W 22:35:46 25° S
Meteor 2-6 Rocket 4.4 22:27:24 10° N 22:33:24 83° W 22:36:48 27° S
SL-08 RB Rocket 4.2 22:33:00 40° E 22:33:37 43° ENE 22:38:02 10° N
Cosmos 2221 Rocket 4.5 22:30:54 10° NNW 22:35:09 47° W 22:37:51 21° SSW
Cosmos 1674 Rocket 4.5 22:34:26 10° NNE 22:37:55 32° ENE 22:37:55 32° ENE
SPOT 1/Viking Rocket 4.1 22:39:33 38° E 22:40:17 40° ENE 22:45:08 10° N
MetOp-A 4.0 22:40:22 40° SSE 22:42:21 90° E 22:47:45 10° NNW
Cosmos 1269 Rocket 4.0 22:40:55 10° NNW 22:46:12 76° WSW 22:47:51 44° S
Cosmos 1782 4.4 22:49:50 10° NNW 22:53:21 30° W 22:54:51 23° SW
Cosmos 1943 Rocket 4.1 22:50:58 10° WSW 22:55:47 29° WNW 23:00:35 10° N
Nadezhda 4 Rocket 3.9 22:53:34 33° S 22:56:35 87° W 23:02:46 10° N
Cosmos 1092 Rocket 3.9 22:56:29 52° SE 22:57:48 65° E 23:03:52 10° NNE
Cosmos 2219 4.0 22:58:27 10° N 23:03:44 36° ENE 23:04:04 36° ENE
YAOGAN 11 4.1 23:04:23 87° WSW 23:04:23 87° WSW 23:08:55 10° NNW
Landsat 7 4.4 23:05:14 44° NE 23:05:14 44° NE 23:09:17 10° N
Intercosmos 25 Rocket 3.7 23:02:08 10° N 23:08:06 83° NE 23:08:06 83° NE
Cosmos 1340 4.2 23:05:42 10° NNW 23:09:03 30° W 23:09:15 30° W
Cosmos 494 Rocket 4.1 23:05:13 10° N 23:10:11 60° ENE 23:10:11 60° ENE
OAO 3 Copernicus 4.3 23:06:01 10° W 23:11:03 76° N 23:11:17 74° NNE
Cosmos 1908 Rocket 4.2 23:12:37 48° NNE 23:12:37 48° NNE 23:15:55 10° N
Meteor 1-14 Rocket 4.4 23:13:13 59° E 23:13:13 59° E 23:18:45 10° NNE
Terra 2.7 23:20:55 40° NE 23:20:55 40° NE 23:24:27 10° N
H-2A R/B 2.1 23:20:37 73° SW 23:20:58 76° WSW 23:26:19 10° NNW
Cosmos 1867 3.7 23:15:54 10° NNW 23:21:08 64° NE 23:21:08 64° NE
Lacrosse 4 Rocket 3.3 23:33:00 10° NW 23:36:05 25° W 23:36:05 25° W
ATLAS CENTAUR R/B 3.2 23:41:19 29° NW 23:41:19 29° NW 23:44:21 10° N
USA 215 3.1 23:40:49 78° SE 23:41:18 90° E 23:47:55 10° NW
ATLAS 5 CENTAUR R/B 3.5 23:40:03 10° NW 23:45:37 34° WSW 23:46:13 33° SW
SPOT 5 4.4 23:45:33 31° WSW 23:46:03 32° W 23:50:46 10° NW
Cosmos 2297 Rocket 3.8 23:44:34 10° N 23:48:21 23° NE 23:48:21 23° NE
